Location: Unspecified
(0.0000°N, 0.0000°E)
Time: 12:44:08
(UTC+00:00)

LightSail 2 - Pass Details

Date: 02 April 2020
Orbit: 693 x 726 km, 24.0° (Epoch: 02 April)

Event Time Altitude Azimuth Distance (km) Brightness Sun altitude
Exits shadow 05:10:58 - 308° (NW) 2,177 7.2 -13.1°
Reaches altitude 10° 05:11:13 10° 311° (NW) 2,131 7.2 -13.0°
Maximum altitude 05:13:39 13° 340° (NNW) 1,906 7.2 -12.4°
Drops below altitude 10° 05:16:06 10° 9° (N) 2,134 7.8 -11.8°
Sets 05:19:46 0° 36° (NE) 3,056 9.1 -10.9°
